Find Starlink 32577

NORAD ID: 62044 Int'l Des: 2024-216 Owner: SPXS Country: US Constellation: starlink operational
LEOCIRCULAR

現在のビュー

3D地球を読み込み中...

About Starlink 32577

Starlink 32577 (NORAD 62044) is a starlink constellation satellite (v2 mini) launched Nov 21, 2024 by SPXS of US. It operates in LEO, CIRCULAR orbit with a mass of 730.00 kg.

次回通過

Passes for default location (London). Set your location on the main map for personalized predictions.

高度履歴

Loading altitude history...

軌道要素

1 62044U 24216N 26265.63353296 .00007726 00000-0 28997-3 0 9999
2 62044 43.0012 231.1858 0001155 280.7327 79.3394 15.27581950103920
Epoch: Sep 22, 2026 • Age: 14 hours

現在のステータス

高度 486.4 km
遠地点 / 近地点 N/A
速度 7.63 km/s
衛星直下点 41.27°N, 149.75°W
打ち上げ日 Nov 21, 2024
運用期間 1.8 years
タイプ internet

技術仕様

分類 Payload
質量 730.00 kg
乾燥質量 700.00 kg
長さ 0.30 m
スパン 29.00 m
形状 ? Box + pan
製造者 SPXS
バスタイプ Starlink V2M
フェーズステータス In Orbit
所有者/国 SPXS/US

Most Searched